Time,TemperatureF,DewpointF,PressureIn,WindDirection,WindDirectionDegrees,WindSpeedMPH,WindSpeedGustMPH,Humidity,HourlyPrecipIn,Conditions,Clouds,dailyrainin,SolarRadiationWatts/m^2,SoftwareType,DateUTC
2013-03-21 00:00:00,24.2,14.1,29.92,West,278,1.5,7.5,65,0.00,,,0.00,0.00,VWS V14.01,2013-03-21 04:00:00,
2013-03-21 00:05:00,24.2,14.5,29.92,West,280,1.5,12.0,66,0.00,,,0.00,0.00,VWS V14.01,2013-03-21 04:05:00,
2013-03-21 00:10:00,23.8,16.1,29.92,WSW,255,1.5,12.0,72,0.00,,,0.00,0.00,VWS V14.01,2013-03-21 04:10:00,
2013-03-21 00:15:00,23.3,16.9,29.92,SW,220,1.5,12.0,76,0.00,,,0.00,0.00,VWS V14.01,2013-03-21 04:15:00,
2013-03-21 00:20:00,23.0,16.3,29.92,WSW,257,7.5,7.5,75,0.00,,,0.00,0.00,VWS V14.01,2013-03-21 04:20:00,
2013-03-21 00:25:00,23.1,14.8,29.92,WNW,283,1.5,9.0,70,0.00,,,0.00,0.00,VWS V14.01,2013-03-21 04:25:00,
2013-03-21 00:30:00,23.3,15.6,29.92,WSW,245,1.5,9.0,72,0.00,,,0.00,0.00,VWS V14.01,2013-03-21 04:30:00,
2013-03-21 00:35:00,23.1,17.3,29.92,WSW,250,1.5,6.0,78,0.00,,,0.00,0.00,VWS V14.01,2013-03-21 04:35:00,
2013-03-21 00:40:00,22.9,15.6,29.92,West,280,1.5,9.0,73,0.00,,,0.00,0.00,VWS V14.01,2013-03-21 04:40:00,
2013-03-21 00:45:00,23.0,16.0,29.92,West,262,0.0,9.0,74,0.00,,,0.00,0.00,VWS V14.01,2013-03-21 04:45:00,
2013-03-21 00:50:00,22.9,16.8,29.92,WSW,238,1.5,9.0,77,0.00,,,0.00,0.00,VWS V14.01,2013-03-21 04:50:00,
2013-03-21 00:55:00,22.4,17.5,29.92,SW,227,3.0,9.0,81,0.00,,,0.00,0.00,VWS V14.01,2013-03-21 04:55:00,
2013-03-21 01:00:00,22.0,17.4,29.92,WSW,247,3.0,9.0,82,0.00,,,0.00,0.00,VWS V14.01,2013-03-21 05:00:00,
2013-03-21 01:05:00,21.9,17.3,29.92,WSW,240,0.0,4.5,82,0.00,,,0.00,0.00,VWS V14.01,2013-03-21 05:05:00,
2013-03-21 01:10:00,22.0,15.6,29.92,West,262,4.5,7.5,76,0.00,,,0.00,0.00,VWS V14.01,2013-03-21 05:10:00,
2013-03-21 01:15:00,22.1,15.1,29.92,West,275,0.0,7.5,74,0.00,,,0.00,0.00,VWS V14.01,2013-03-21 05:15:00,
2013-03-21 01:20:00,22.1,13.8,29.92,SW,236,4.5,9.0,70,0.00,,,0.00,0.00,VWS V14.01,2013-03-21 05:20:00,
2013-03-21 01:25:00,22.4,12.8,29.92,West,274,3.0,9.0,66,0.00,,,0.00,0.00,VWS V14.01,2013-03-21 05:25:00,
2013-03-21 01:30:00,22.6,12.3,29.91,West,261,1.5,9.0,64,0.00,,,0.00,0.00,VWS V14.01,2013-03-21 05:30:00,
2013-03-21 01:35:00,22.7,13.4,29.91,WNW,286,3.0,6.0,67,0.00,,,0.00,0.00,VWS V14.01,2013-03-21 05:35:00,
2013-03-21 01:40:00,22.7,14.1,29.91,WNW,300,1.5,7.5,69,0.00,,,0.00,0.00,VWS V14.01,2013-03-21 05:40:00,
2013-03-21 01:45:00,22.6,13.6,29.91,WSW,252,0.0,7.5,68,0.00,,,0.00,0.00,VWS V14.01,2013-03-21 05:45:00,
2013-03-21 01:50:00,22.5,14.2,29.91,West,271,0.0,6.0,70,0.00,,,0.00,0.00,VWS V14.01,2013-03-21 05:50:00,
2013-03-21 01:55:00,22.4,14.4,29.91,West,271,0.0,6.0,71,0.00,,,0.00,0.00,VWS V14.01,2013-03-21 05:55:00,
2013-03-21 02:00:00,22.2,14.9,29.92,West,261,1.5,6.0,73,0.00,,,0.00,0.00,VWS V14.01,2013-03-21 06:00:00,
2013-03-21 02:05:00,21.7,16.2,29.92,West,259,1.5,6.0,79,0.00,,,0.00,0.00,VWS V14.01,2013-03-21 06:05:00,
2013-03-21 02:10:00,21.4,16.8,29.92,WNW,302,1.5,7.5,82,0.00,,,0.00,0.00,VWS V14.01,2013-03-21 06:10:00,
2013-03-21 02:15:00,21.2,16.3,29.92,West,269,1.5,7.5,81,0.00,,,0.00,0.00,VWS V14.01,2013-03-21 06:15:00,
2013-03-21 02:20:00,21.1,15.3,29.91,West,269,0.0,6.0,78,0.00,,,0.00,0.00,VWS V14.01,2013-03-21 06:20:00,
2013-03-21 02:25:00,21.1,15.0,29.91,WSW,252,0.0,6.0,77,0.00,,,0.00,0.00,VWS V14.01,2013-03-21 06:25:00,
2013-03-21 02:30:00,21.1,15.0,29.91,WSW,255,3.0,7.5,77,0.00,,,0.00,0.00,VWS V14.01,2013-03-21 06:30:00,
2013-03-21 02:35:00,21.2,13.9,29.91,West,274,1.5,10.5,73,0.00,,,0.00,0.00,VWS V14.01,2013-03-21 06:35:00,
2013-03-21 02:40:00,21.3,14.0,29.91,West,269,1.5,10.5,73,0.00,,,0.00,0.00,VWS V14.01,2013-03-21 06:40:00,
2013-03-21 02:45:00,21.4,14.1,29.91,WNW,286,0.0,15.0,73,0.00,,,0.00,0.00,VWS V14.01,2013-03-21 06:45:00,
2013-03-21 02:50:00,21.4,14.7,29.91,WNW,290,3.0,4.5,75,0.00,,,0.00,0.00,VWS V14.01,2013-03-21 06:50:00,
2013-03-21 02:54:00,21.5,14.2,29.91,WSW,249,0.0,6.0,73,0.00,,,0.00,0.00,VWS V14.01,2013-03-21 06:54:00,
2013-03-21 02:59:00,21.5,14.5,29.91,SSW,195,0.0,6.0,74,0.00,,,0.00,0.00,VWS V14.01,2013-03-21 06:59:00,
2013-03-21 03:00:00,22.1,15.7,29.91,West,273,3.0,6.0,76,0.00,,,0.00,0.00,VWS V14.01,2013-03-21 07:00:00,
2013-03-21 03:04:00,21.3,12.7,29.91,West,274,1.5,4.5,69,0.00,,,0.00,0.00,VWS V14.01,2013-03-21 07:04:00,
2013-03-21 03:09:00,21.3,13.4,29.90,West,279,0.0,6.0,71,0.00,,,0.00,0.00,VWS V14.01,2013-03-21 07:09:00,
2013-03-21 03:14:00,21.1,14.4,29.90,West,276,1.5,6.0,75,0.00,,,0.00,0.00,VWS V14.01,2013-03-21 07:14:00,
2013-03-21 03:15:00,21.2,16.3,29.92,WSW,243,0.0,7.5,81,0.00,,,0.00,0.00,VWS V14.01,2013-03-21 07:15:00,
2013-03-21 03:19:00,20.9,14.5,29.90,NW,306,6.0,6.0,76,0.00,,,0.00,0.00,VWS V14.01,2013-03-21 07:19:00,
2013-03-21 03:24:00,20.9,13.0,29.90,WNW,294,1.5,7.5,71,0.00,,,0.00,0.00,VWS V14.01,2013-03-21 07:24:00,
2013-03-21 03:29:00,20.9,12.4,29.90,West,281,0.0,7.5,69,0.00,,,0.00,0.00,VWS V14.01,2013-03-21 07:29:00,
2013-03-21 03:30:00,21.1,14.4,29.91,West,271,1.5,7.5,75,0.00,,,0.00,0.00,VWS V14.01,2013-03-21 07:30:00,
2013-03-21 03:34:00,20.9,13.0,29.90,WSW,253,0.0,6.0,71,0.00,,,0.00,0.00,VWS V14.01,2013-03-21 07:34:00,
2013-03-21 03:39:00,20.9,13.3,29.90,WSW,257,1.5,7.5,72,0.00,,,0.00,0.00,VWS V14.01,2013-03-21 07:39:00,
2013-03-21 03:44:00,20.9,12.7,29.90,WSW,253,3.0,7.5,70,0.00,,,0.00,0.00,VWS V14.01,2013-03-21 07:44:00,
2013-03-21 03:45:00,21.4,14.1,29.91,WSW,257,0.0,15.0,73,0.00,,,0.00,0.00,VWS V14.01,2013-03-21 07:45:00,
2013-03-21 03:49:00,21.0,11.8,29.90,SW,222,1.5,4.5,67,0.00,,,0.00,0.00,VWS V14.01,2013-03-21 07:49:00,
2013-03-21 03:54:00,21.1,11.2,29.89,WSW,239,0.0,6.0,65,0.00,,,0.00,0.00,VWS V14.01,2013-03-21 07:54:00,
2013-03-21 03:59:00,21.2,11.3,29.89,WSW,251,3.0,6.0,65,0.00,,,0.00,0.00,VWS V14.01,2013-03-21 07:59:00,
2013-03-21 04:00:00,21.4,13.1,29.91,WNW,300,1.5,12.0,70,0.00,,,0.00,0.00,VWS V14.01,2013-03-21 08:00:00,
2013-03-21 04:04:00,21.2,11.3,29.89,West,268,0.0,4.5,65,0.00,,,0.00,0.00,VWS V14.01,2013-03-21 08:04:00,
2013-03-21 04:09:00,21.2,11.3,29.89,NW,306,3.0,6.0,65,0.00,,,0.00,0.00,VWS V14.01,2013-03-21 08:09:00,
2013-03-21 04:14:00,21.2,10.6,29.89,West,275,1.5,7.5,63,0.00,,,0.00,0.00,VWS V14.01,2013-03-21 08:14:00,
2013-03-21 04:15:00,21.0,14.3,29.90,West,262,1.5,6.0,75,0.00,,,0.00,0.00,VWS V14.01,2013-03-21 08:15:00,
2013-03-21 04:19:00,21.3,11.0,29.89,WSW,246,0.0,6.0,64,0.00,,,0.00,0.00,VWS V14.01,2013-03-21 08:19:00,
2013-03-21 04:24:00,21.3,11.4,29.89,WNW,290,1.5,6.0,65,0.00,,,0.00,0.00,VWS V14.01,2013-03-21 08:24:00,
2013-03-21 04:29:00,21.2,12.0,29.88,WSW,250,0.0,6.0,67,0.00,,,0.00,0.00,VWS V14.01,2013-03-21 08:29:00,
2013-03-21 04:30:00,20.9,12.4,29.90,WSW,256,0.0,7.5,69,0.00,,,0.00,0.00,VWS V14.01,2013-03-21 08:30:00,
2013-03-21 04:34:00,21.1,12.9,29.89,West,266,0.0,7.5,70,0.00,,,0.00,0.00,VWS V14.01,2013-03-21 08:34:00,
2013-03-21 04:39:00,21.1,13.5,29.89,WNW,288,3.0,7.5,72,0.00,,,0.00,0.00,VWS V14.01,2013-03-21 08:39:00,
2013-03-21 04:44:00,20.9,13.6,29.89,West,281,1.5,7.5,73,0.00,,,0.00,0.00,VWS V14.01,2013-03-21 08:44:00,
2013-03-21 04:45:00,20.9,12.4,29.89,WSW,241,3.0,7.5,69,0.00,,,0.00,0.00,VWS V14.01,2013-03-21 08:45:00,
2013-03-21 04:49:00,20.7,13.4,29.88,SW,224,1.5,6.0,73,0.00,,,0.00,0.00,VWS V14.01,2013-03-21 08:49:00,
2013-03-21 04:54:00,20.7,14.0,29.89,West,262,4.5,10.5,75,0.00,,,0.00,0.00,VWS V14.01,2013-03-21 08:54:00,
2013-03-21 04:59:00,20.6,14.8,29.88,West,280,0.0,10.5,78,0.00,,,0.00,0.00,VWS V14.01,2013-03-21 08:59:00,
2013-03-21 05:00:00,21.2,11.3,29.89,WNW,297,1.5,6.0,65,0.00,,,0.00,0.00,VWS V14.01,2013-03-21 09:00:00,
2013-03-21 05:04:00,20.4,14.6,29.88,WNW,285,0.0,6.0,78,0.00,,,0.00,0.00,VWS V14.01,2013-03-21 09:04:00,
2013-03-21 05:09:00,20.4,14.4,29.88,WNW,283,0.0,7.5,77,0.00,,,0.00,0.00,VWS V14.01,2013-03-21 09:09:00,
2013-03-21 05:14:00,20.2,14.2,29.88,WSW,249,1.5,7.5,77,0.00,,,0.00,0.00,VWS V14.01,2013-03-21 09:14:00,
2013-03-21 05:15:00,21.3,10.7,29.89,West,271,1.5,7.5,63,0.00,,,0.00,0.00,VWS V14.01,2013-03-21 09:15:00,
2013-03-21 05:19:00,20.4,12.8,29.88,West,271,1.5,6.0,72,0.00,,,0.00,0.00,VWS V14.01,2013-03-21 09:19:00,
2013-03-21 05:24:00,20.5,12.3,29.88,SW,214,1.5,7.5,70,0.00,,,0.00,0.00,VWS V14.01,2013-03-21 09:24:00,
2013-03-21 05:29:00,20.6,13.9,29.88,SSW,203,0.0,7.5,75,0.00,,,0.00,0.00,VWS V14.01,2013-03-21 09:29:00,
2013-03-21 05:30:00,21.2,12.0,29.88,SSW,210,1.5,6.0,67,0.00,,,0.00,0.00,VWS V14.01,2013-03-21 09:30:00,
2013-03-21 05:34:00,20.5,15.3,29.88,South,191,6.0,6.0,80,0.00,,,0.00,0.00,VWS V14.01,2013-03-21 09:34:00,
2013-03-21 05:39:00,20.2,15.6,29.88,SW,234,0.0,7.5,82,0.00,,,0.00,0.00,VWS V14.01,2013-03-21 09:39:00,
2013-03-21 05:44:00,20.0,15.9,29.88,SW,236,1.5,7.5,84,0.00,,,0.00,0.00,VWS V14.01,2013-03-21 09:44:00,
2013-03-21 05:45:00,20.8,13.5,29.88,WSW,253,1.5,7.5,73,0.00,,,0.00,0.00,VWS V14.01,2013-03-21 09:45:00,
2013-03-21 05:49:00,19.9,15.6,29.88,West,269,0.0,6.0,83,0.00,,,0.00,0.00,VWS V14.01,2013-03-21 09:49:00,
2013-03-21 05:54:00,19.8,15.8,29.88,WSW,253,3.0,7.5,84,0.00,,,0.00,0.00,VWS V14.01,2013-03-21 09:54:00,
2013-03-21 05:59:00,19.7,15.9,29.88,WSW,243,0.0,7.5,85,0.00,,,0.00,0.00,VWS V14.01,2013-03-21 09:59:00,
2013-03-21 06:00:00,20.5,14.7,29.88,West,275,1.5,10.5,78,0.00,,,0.00,0.00,VWS V14.01,2013-03-21 10:00:00,
2013-03-21 06:04:00,19.6,15.8,29.88,SSE,158,0.0,1.5,85,0.00,,,0.00,0.00,VWS V14.01,2013-03-21 10:04:00,
2013-03-21 06:09:00,19.6,15.8,29.88,WSW,243,0.0,3.0,85,0.00,,,0.00,0.00,VWS V14.01,2013-03-21 10:09:00,
2013-03-21 06:14:00,19.6,15.8,29.88,SW,217,3.0,6.0,85,0.00,,,0.00,0.00,VWS V14.01,2013-03-21 10:14:00,
2013-03-21 06:15:00,20.3,14.3,29.88,West,274,1.5,7.5,77,0.00,,,0.00,0.00,VWS V14.01,2013-03-21 10:15:00,
2013-03-21 06:19:00,19.4,15.6,29.88,WSW,249,4.5,6.0,85,0.00,,,0.00,0.00,VWS V14.01,2013-03-21 10:19:00,
2013-03-21 06:24:00,19.4,15.6,29.88,SW,217,1.5,7.5,85,0.00,,,0.00,0.00,VWS V14.01,2013-03-21 10:24:00,
2013-03-21 06:29:00,19.4,15.4,29.88,West,260,0.0,7.5,84,0.00,,,0.00,0.00,VWS V14.01,2013-03-21 10:29:00,
2013-03-21 06:30:00,20.6,14.6,29.88,SW,219,3.0,7.5,77,0.00,,,0.00,0.00,VWS V14.01,2013-03-21 10:30:00,
2013-03-21 06:34:00,19.4,15.4,29.88,West,266,1.5,7.5,84,0.00,,,0.00,0.00,VWS V14.01,2013-03-21 10:34:00,
2013-03-21 06:39:00,19.5,14.9,29.88,WSW,243,1.5,12.0,82,0.00,,,0.00,0.00,VWS V14.01,2013-03-21 10:39:00,
2013-03-21 06:44:00,19.5,15.2,29.88,West,264,1.5,12.0,83,0.00,,,0.00,0.00,VWS V14.01,2013-03-21 10:44:00,
2013-03-21 06:45:00,19.9,15.6,29.88,West,268,1.5,9.0,83,0.00,,,0.00,0.00,VWS V14.01,2013-03-21 10:45:00,
2013-03-21 06:49:00,19.6,15.3,29.88,SW,224,0.0,1.5,83,0.00,,,0.00,0.00,VWS V14.01,2013-03-21 10:49:00,
2013-03-21 06:54:00,19.4,15.4,29.88,WNW,283,7.5,9.0,84,0.00,,,0.00,0.00,VWS V14.01,2013-03-21 10:54:00,
2013-03-21 06:59:00,19.3,15.3,29.88,West,259,1.5,9.0,84,0.00,,,0.00,0.00,VWS V14.01,2013-03-21 10:59:00,
2013-03-21 07:00:00,19.7,15.7,29.88,SW,222,1.5,7.5,84,0.00,,,0.00,0.00,VWS V14.01,2013-03-21 11:00:00,
2013-03-21 07:04:00,19.2,15.7,29.88,SSW,193,3.0,3.0,86,0.00,,,0.00,0.00,VWS V14.01,2013-03-21 11:04:00,
2013-03-21 07:09:00,19.1,15.3,29.88,SW,236,1.5,10.5,85,0.00,,,0.00,0.00,VWS V14.01,2013-03-21 11:09:00,
2013-03-21 07:14:00,19.0,15.2,29.88,SW,216,0.0,10.5,85,0.00,,,0.00,0.00,VWS V14.01,2013-03-21 11:14:00,
2013-03-21 07:15:00,19.5,15.7,29.87,SW,221,3.0,6.0,85,0.00,,,0.00,0.00,VWS V14.01,2013-03-21 11:15:00,
2013-03-21 07:19:00,19.0,15.5,29.88,WSW,240,1.5,7.5,86,0.00,,,0.00,0.00,VWS V14.01,2013-03-21 11:19:00,
2013-03-21 07:24:00,19.0,15.2,29.88,WSW,255,7.5,9.0,85,0.00,,,0.00,0.00,VWS V14.01,2013-03-21 11:24:00,
2013-03-21 07:29:00,18.9,15.1,29.88,South,176,4.5,9.0,85,0.00,,,0.00,0.00,VWS V14.01,2013-03-21 11:29:00,
2013-03-21 07:30:00,19.4,15.4,29.88,South,184,0.0,7.5,84,0.00,,,0.00,0.00,VWS V14.01,2013-03-21 11:30:00,
2013-03-21 07:34:00,18.9,15.4,29.89,West,263,0.0,4.5,86,0.00,,,0.00,0.00,VWS V14.01,2013-03-21 11:34:00,
2013-03-21 07:39:00,18.9,15.1,29.89,SSW,209,3.0,4.5,85,0.00,,,0.00,0.00,VWS V14.01,2013-03-21 11:39:00,
2013-03-21 07:44:00,18.9,15.1,29.89,SSW,193,0.0,9.0,85,0.00,,,0.00,0.00,VWS V14.01,2013-03-21 11:44:00,
2013-03-21 07:45:00,19.5,14.9,29.88,WSW,248,0.0,12.0,82,0.00,,,0.00,0.00,VWS V14.01,2013-03-21 11:45:00,
2013-03-21 07:49:00,18.9,15.4,29.89,SSW,210,1.5,6.0,86,0.00,,,0.00,0.00,VWS V14.01,2013-03-21 11:49:00,
2013-03-21 07:54:00,18.8,15.3,29.88,WSW,238,1.5,6.0,86,0.00,,,0.00,0.00,VWS V14.01,2013-03-21 11:54:00,
2013-03-21 07:59:00,18.7,15.2,29.88,SW,224,3.0,7.5,86,0.00,,,0.00,0.00,VWS V14.01,2013-03-21 11:59:00,
2013-03-21 08:00:00,19.2,15.4,29.88,WSW,257,0.0,9.0,85,0.00,,,0.00,0.00,VWS V14.01,2013-03-21 12:00:00,
2013-03-21 08:04:00,18.7,15.5,29.88,WSW,252,0.0,4.5,87,0.00,,,0.00,0.00,VWS V14.01,2013-03-21 12:04:00,
2013-03-21 08:09:00,18.6,15.6,29.88,SW,224,0.0,4.5,88,0.00,,,0.00,0.00,VWS V14.01,2013-03-21 12:09:00,
2013-03-21 08:14:00,18.6,15.4,29.88,SSW,196,1.5,7.5,87,0.00,,,0.00,0.00,VWS V14.01,2013-03-21 12:14:00,
2013-03-21 08:15:00,19.0,15.5,29.88,SW,234,0.0,10.5,86,0.00,,,0.00,0.00,VWS V14.01,2013-03-21 12:15:00,
2013-03-21 08:19:00,18.5,15.3,29.88,SW,215,0.0,4.5,87,0.00,,,0.00,0.00,VWS V14.01,2013-03-21 12:19:00,
2013-03-21 08:24:00,18.7,15.7,29.88,SW,236,0.0,4.5,88,0.00,,,0.00,0.00,VWS V14.01,2013-03-21 12:24:00,
2013-03-21 08:29:00,18.7,15.5,29.88,SSW,194,0.0,4.5,87,0.00,,,0.00,0.00,VWS V14.01,2013-03-21 12:29:00,
2013-03-21 08:30:00,18.9,15.1,29.88,SSW,207,3.0,9.0,85,0.00,,,0.00,0.00,VWS V14.01,2013-03-21 12:30:00,
2013-03-21 08:34:00,18.7,15.5,29.88,SW,222,4.5,4.5,87,0.00,,,0.00,0.00,VWS V14.01,2013-03-21 12:34:00,
2013-03-21 08:39:00,18.7,15.2,29.88,WSW,247,1.5,6.0,86,0.00,,,0.00,0.00,VWS V14.01,2013-03-21 12:39:00,
2013-03-21 08:44:00,18.8,15.3,29.88,West,262,1.5,6.0,86,0.00,,,0.00,0.00,VWS V14.01,2013-03-21 12:44:00,
2013-03-21 08:45:00,18.9,15.1,29.89,SW,219,1.5,9.0,85,0.00,,,0.00,0.00,VWS V14.01,2013-03-21 12:45:00,
2013-03-21 08:49:00,19.0,15.2,29.88,SSW,206,3.0,6.0,85,0.00,,,0.00,0.00,VWS V14.01,2013-03-21 12:49:00,
2013-03-21 08:54:00,19.0,15.2,29.88,SW,221,4.5,6.0,85,0.00,,,0.00,0.00,VWS V14.01,2013-03-21 12:54:00,
2013-03-21 08:59:00,19.2,15.4,29.88,West,265,0.0,6.0,85,0.00,,,0.00,0.00,VWS V14.01,2013-03-21 12:59:00,
2013-03-21 09:00:00,18.7,15.2,29.88,SW,214,4.5,7.5,86,0.00,,,0.00,0.00,VWS V14.01,2013-03-21 13:00:00,
2013-03-21 09:04:00,19.4,15.6,29.88,SW,235,1.5,3.0,85,0.00,,,0.00,0.00,VWS V14.01,2013-03-21 13:04:00,
2013-03-21 09:09:00,19.5,15.2,29.88,SW,234,4.5,7.5,83,0.00,,,0.00,0.00,VWS V14.01,2013-03-21 13:09:00,
2013-03-21 09:14:00,19.6,15.3,29.88,SSW,213,4.5,7.5,83,0.00,,,0.00,0.00,VWS V14.01,2013-03-21 13:14:00,
2013-03-21 09:15:00,18.5,15.3,29.88,SW,223,0.0,7.5,87,0.00,,,0.00,0.00,VWS V14.01,2013-03-21 13:15:00,
2013-03-21 09:19:00,19.9,15.6,29.88,WSW,249,1.5,6.0,83,0.00,,,0.00,0.00,VWS V14.01,2013-03-21 13:19:00,
2013-03-21 09:24:00,20.2,15.9,29.89,WSW,237,6.0,6.0,83,0.00,,,0.00,0.00,VWS V14.01,2013-03-21 13:24:00,
2013-03-21 09:29:00,20.4,15.8,29.88,SSE,148,0.0,15.0,82,0.00,,,0.00,0.00,VWS V14.01,2013-03-21 13:29:00,
2013-03-21 09:30:00,18.7,15.5,29.88,SSE,149,0.0,4.5,87,0.00,,,0.00,0.00,VWS V14.01,2013-03-21 13:30:00,
2013-03-21 09:34:00,20.5,15.9,29.89,West,266,0.0,7.5,82,0.00,,,0.00,0.00,VWS V14.01,2013-03-21 13:34:00,
2013-03-21 09:39:00,20.4,16.1,29.89,SW,216,6.0,9.0,83,0.00,,,0.00,0.00,VWS V14.01,2013-03-21 13:39:00,
2013-03-21 09:44:00,20.0,16.5,29.89,WSW,238,1.5,12.0,86,0.00,,,0.00,0.00,VWS V14.01,2013-03-21 13:44:00,
2013-03-21 09:45:00,18.9,15.4,29.88,WSW,255,0.0,6.0,86,0.00,,,0.00,0.00,VWS V14.01,2013-03-21 13:45:00,
2013-03-21 09:49:00,19.8,16.3,29.89,West,266,1.5,7.5,86,0.00,,,0.00,0.00,VWS V14.01,2013-03-21 13:49:00,
2013-03-21 09:54:00,19.6,16.1,29.89,WSW,242,4.5,9.0,86,0.00,,,0.00,0.00,VWS V14.01,2013-03-21 13:54:00,
2013-03-21 09:59:00,19.6,16.4,29.89,West,262,1.5,13.5,87,0.00,,,0.00,0.00,VWS V14.01,2013-03-21 13:59:00,
2013-03-21 10:00:00,19.3,15.5,29.88,WSW,243,3.0,6.0,85,0.00,,,0.00,0.00,VWS V14.01,2013-03-21 14:00:00,
2013-03-21 10:04:00,19.6,16.4,29.89,West,260,3.0,7.5,87,0.00,,,0.00,0.00,VWS V14.01,2013-03-21 14:04:00,
2013-03-21 10:09:00,19.8,16.6,29.89,SSW,211,1.5,12.0,87,0.00,,,0.00,0.00,VWS V14.01,2013-03-21 14:09:00,
2013-03-21 10:14:00,20.2,16.4,29.89,SW,230,1.5,12.0,85,0.00,,,0.00,0.00,VWS V14.01,2013-03-21 14:14:00,
2013-03-21 10:15:00,19.7,15.4,29.88,SW,227,3.0,7.5,83,0.00,,,0.00,0.00,VWS V14.01,2013-03-21 14:15:00,
2013-03-21 10:19:00,20.5,17.0,29.89,SW,234,3.0,9.0,86,0.00,,,0.00,0.00,VWS V14.01,2013-03-21 14:19:00,
2013-03-21 10:24:00,20.6,16.8,29.89,SSW,212,4.5,16.5,85,0.00,,,0.00,0.00,VWS V14.01,2013-03-21 14:24:00,
2013-03-21 10:29:00,20.4,16.6,29.89,WSW,250,3.0,16.5,85,0.00,,,0.00,0.00,VWS V14.01,2013-03-21 14:29:00,
2013-03-21 10:30:00,20.4,15.8,29.89,West,269,1.5,15.0,82,0.00,,,0.00,0.00,VWS V14.01,2013-03-21 14:30:00,
2013-03-21 10:34:00,20.5,16.7,29.89,South,191,3.0,9.0,85,0.00,,,0.00,0.00,VWS V14.01,2013-03-21 14:34:00,
2013-03-21 10:39:00,20.8,17.0,29.89,WSW,243,3.0,12.0,85,0.00,,,0.00,0.00,VWS V14.01,2013-03-21 14:39:00,
2013-03-21 10:44:00,21.0,16.7,29.89,SSW,201,4.5,12.0,83,0.00,,,0.00,0.00,VWS V14.01,2013-03-21 14:44:00,
2013-03-21 10:45:00,19.9,16.4,29.89,SW,230,3.0,12.0,86,0.00,,,0.00,0.00,VWS V14.01,2013-03-21 14:45:00,
2013-03-21 10:49:00,21.1,17.0,29.89,WSW,249,1.5,9.0,84,0.00,,,0.00,0.00,VWS V14.01,2013-03-21 14:49:00,
2013-03-21 10:54:00,21.3,17.2,29.89,West,263,0.0,10.5,84,0.00,,,0.00,0.00,VWS V14.01,2013-03-21 14:54:00,
2013-03-21 10:59:00,21.7,17.6,29.89,SSW,212,3.0,10.5,84,0.00,,,0.00,0.00,VWS V14.01,2013-03-21 14:59:00,
2013-03-21 11:00:00,19.6,16.4,29.89,SW,224,4.5,13.5,87,0.00,,,0.00,0.00,VWS V14.01,2013-03-21 15:00:00,
2013-03-21 11:04:00,22.1,18.0,29.89,South,172,3.0,6.0,84,0.00,,,0.00,0.00,VWS V14.01,2013-03-21 15:04:00,
2013-03-21 11:09:00,22.4,17.8,29.89,West,272,1.5,9.0,82,0.00,,,0.00,0.00,VWS V14.01,2013-03-21 15:09:00,
2013-03-21 11:14:00,22.5,17.9,29.89,South,175,7.5,10.5,82,0.00,,,0.00,0.00,VWS V14.01,2013-03-21 15:14:00,
2013-03-21 11:15:00,20.3,16.5,29.89,SSW,208,4.5,13.5,85,0.00,,,0.00,0.00,VWS V14.01,2013-03-21 15:15:00,
2013-03-21 11:19:00,22.4,17.8,29.89,SW,231,4.5,10.5,82,0.00,,,0.00,0.00,VWS V14.01,2013-03-21 15:19:00,
2013-03-21 11:24:00,22.7,18.0,29.89,WSW,255,1.5,10.5,82,0.00,,,0.00,0.00,VWS V14.01,2013-03-21 15:24:00,
2013-03-21 11:29:00,22.7,18.3,29.89,SSW,210,1.5,10.5,83,0.00,,,0.00,0.00,VWS V14.01,2013-03-21 15:29:00,
2013-03-21 11:30:00,20.4,16.6,29.89,West,259,3.0,16.5,85,0.00,,,0.00,0.00,VWS V14.01,2013-03-21 15:30:00,
2013-03-21 11:34:00,22.6,17.9,29.90,WSW,239,6.0,9.0,82,0.00,,,0.00,0.00,VWS V14.01,2013-03-21 15:34:00,
2013-03-21 11:38:00,22.5,18.1,29.89,West,274,4.5,9.0,83,0.00,,,0.00,0.00,VWS V14.01,2013-03-21 15:38:00,
2013-03-21 11:43:00,22.3,18.2,29.90,SW,236,0.0,9.0,84,0.00,,,0.00,0.00,VWS V14.01,2013-03-21 15:43:00,
2013-03-21 11:45:00,21.0,16.9,29.89,SW,219,7.5,12.0,84,0.00,,,0.00,0.00,VWS V14.01,2013-03-21 15:45:00,
2013-03-21 11:48:00,22.3,18.2,29.90,West,265,7.5,12.0,84,0.00,,,0.00,0.00,VWS V14.01,2013-03-21 15:48:00,
2013-03-21 11:53:00,22.2,18.1,29.90,SSE,162,6.0,12.0,84,0.00,,,0.00,0.00,VWS V14.01,2013-03-21 15:53:00,
2013-03-21 11:58:00,22.1,18.3,29.90,WSW,243,6.0,12.0,85,0.00,,,0.00,0.00,VWS V14.01,2013-03-21 15:58:00,
2013-03-21 12:00:00,21.9,17.5,29.89,WSW,243,1.5,10.5,83,0.00,,,0.00,0.00,VWS V14.01,2013-03-21 16:00:00,
2013-03-21 12:03:00,22.0,18.2,29.90,West,259,7.5,7.5,85,0.00,,,0.00,0.00,VWS V14.01,2013-03-21 16:03:00,
2013-03-21 12:08:00,22.1,18.3,29.90,SW,236,4.5,7.5,85,0.00,,,0.00,0.00,VWS V14.01,2013-03-21 16:08:00,
2013-03-21 12:13:00,22.4,18.6,29.90,West,270,3.0,12.0,85,0.00,,,0.00,0.00,VWS V14.01,2013-03-21 16:13:00,
2013-03-21 12:15:00,22.5,17.9,29.89,West,264,4.5,10.5,82,0.00,,,0.00,0.00,VWS V14.01,2013-03-21 16:15:00,
2013-03-21 12:18:00,22.8,18.7,29.89,SW,223,4.5,9.0,84,0.00,,,0.00,0.00,VWS V14.01,2013-03-21 16:18:00,
2013-03-21 12:23:00,23.0,18.3,29.89,WSW,250,3.0,9.0,82,0.00,,,0.00,0.00,VWS V14.01,2013-03-21 16:23:00,
2013-03-21 12:28:00,23.2,18.0,29.90,West,265,1.5,12.0,80,0.00,,,0.00,0.00,VWS V14.01,2013-03-21 16:28:00,
2013-03-21 12:30:00,22.7,18.3,29.89,WSW,257,1.5,10.5,83,0.00,,,0.00,0.00,VWS V14.01,2013-03-21 16:30:00,
2013-03-21 12:33:00,23.2,18.0,29.90,WSW,241,1.5,12.0,80,0.00,,,0.00,0.00,VWS V14.01,2013-03-21 16:33:00,
2013-03-21 12:38:00,23.2,18.2,29.90,West,263,3.0,12.0,81,0.00,,,0.00,0.00,VWS V14.01,2013-03-21 16:38:00,
2013-03-21 12:43:00,23.4,18.4,29.90,West,269,3.0,12.0,81,0.00,,,0.00,0.00,VWS V14.01,2013-03-21 16:43:00,
2013-03-21 12:45:00,22.3,17.9,29.90,WSW,244,3.0,10.5,83,0.00,,,0.00,0.00,VWS V14.01,2013-03-21 16:45:00,
2013-03-21 12:48:00,23.5,18.5,29.90,SW,214,4.5,9.0,81,0.00,,,0.00,0.00,VWS V14.01,2013-03-21 16:48:00,
2013-03-21 12:53:00,23.7,18.1,29.90,SSW,207,3.0,12.0,79,0.00,,,0.00,0.00,VWS V14.01,2013-03-21 16:53:00,
2013-03-21 12:58:00,23.8,18.2,29.90,West,261,4.5,12.0,79,0.00,,,0.00,0.00,VWS V14.01,2013-03-21 16:58:00,
2013-03-21 13:00:00,22.1,18.3,29.90,West,264,1.5,12.0,85,0.00,,,0.00,0.00,VWS V14.01,2013-03-21 17:00:00,
2013-03-21 13:03:00,23.9,17.8,29.90,WSW,250,3.0,15.0,77,0.00,,,0.00,0.00,VWS V14.01,2013-03-21 17:03:00,
2013-03-21 13:08:00,24.0,17.9,29.89,WSW,241,3.0,15.0,77,0.00,,,0.00,0.00,VWS V14.01,2013-03-21 17:08:00,
2013-03-21 13:13:00,24.3,17.8,29.89,West,275,3.0,15.0,76,0.00,,,0.00,0.00,VWS V14.01,2013-03-21 17:13:00,
2013-03-21 13:15:00,22.6,18.5,29.89,SSW,203,6.0,12.0,84,0.00,,,0.00,0.00,VWS V14.01,2013-03-21 17:15:00,
2013-03-21 13:18:00,24.4,18.2,29.90,West,262,3.0,7.5,77,0.00,,,0.00,0.00,VWS V14.01,2013-03-21 17:18:00,
2013-03-21 13:23:00,24.4,18.5,29.90,WSW,240,6.0,13.5,78,0.00,,,0.00,0.00,VWS V14.01,2013-03-21 17:23:00,
2013-03-21 13:28:00,24.2,18.3,29.90,West,265,1.5,13.5,78,0.00,,,0.00,0.00,VWS V14.01,2013-03-21 17:28:00,
2013-03-21 13:30:00,23.2,18.2,29.90,SW,236,10.5,12.0,81,0.00,,,0.00,0.00,VWS V14.01,2013-03-21 17:30:00,
2013-03-21 13:33:00,24.4,19.1,29.90,SW,232,4.5,9.0,80,0.00,,,0.00,0.00,VWS V14.01,2013-03-21 17:33:00,
2013-03-21 13:38:00,24.4,19.1,29.90,WSW,253,3.0,9.0,80,0.00,,,0.00,0.00,VWS V14.01,2013-03-21 17:38:00,
2013-03-21 13:43:00,24.5,18.9,29.89,SSW,213,6.0,15.0,79,0.00,,,0.00,0.00,VWS V14.01,2013-03-21 17:43:00,
2013-03-21 13:45:00,23.5,18.5,29.90,WNW,287,4.5,12.0,81,0.00,,,0.00,0.00,VWS V14.01,2013-03-21 17:45:00,
2013-03-21 13:48:00,24.8,19.5,29.90,SW,221,9.0,9.0,80,0.00,,,0.00,0.00,VWS V14.01,2013-03-21 17:48:00,
2013-03-21 13:53:00,24.9,19.6,29.89,WSW,246,6.0,13.5,80,0.00,,,0.00,0.00,VWS V14.01,2013-03-21 17:53:00,
2013-03-21 13:58:00,24.8,19.8,29.90,West,263,3.0,15.0,81,0.00,,,0.00,0.00,VWS V14.01,2013-03-21 17:58:00,
2013-03-21 14:00:00,23.9,18.0,29.89,West,259,6.0,12.0,78,0.00,,,0.00,0.00,VWS V14.01,2013-03-21 18:00:00,
2013-03-21 14:03:00,24.8,20.1,29.90,WSW,240,7.5,7.5,82,0.00,,,0.00,0.00,VWS V14.01,2013-03-21 18:03:00,
2013-03-21 14:08:00,24.7,20.0,29.89,West,263,1.5,13.5,82,0.00,,,0.00,0.00,VWS V14.01,2013-03-21 18:08:00,
2013-03-21 14:13:00,24.7,20.3,29.90,WSW,255,3.0,13.5,83,0.00,,,0.00,0.00,VWS V14.01,2013-03-21 18:13:00,
2013-03-21 14:15:00,24.3,18.1,29.90,SW,236,7.5,15.0,77,0.00,,,0.00,0.00,VWS V14.01,2013-03-21 18:15:00,
2013-03-21 14:18:00,24.8,20.1,29.90,West,269,1.5,13.5,82,0.00,,,0.00,0.00,VWS V14.01,2013-03-21 18:18:00,
2013-03-21 14:23:00,25.0,20.3,29.89,West,267,1.5,13.5,82,0.00,,,0.00,0.00,VWS V14.01,2013-03-21 18:23:00,
2013-03-21 14:28:00,25.0,20.3,29.90,WSW,257,0.0,13.5,82,0.00,,,0.00,0.00,VWS V14.01,2013-03-21 18:28:00,
2013-03-21 14:30:00,24.3,19.0,29.90,WSW,251,7.5,13.5,80,0.00,,,0.00,0.00,VWS V14.01,2013-03-21 18:30:00,
2013-03-21 14:33:00,25.0,20.0,29.89,SW,236,4.5,9.0,81,0.00,,,0.00,0.00,VWS V14.01,2013-03-21 18:33:00,
2013-03-21 14:38:00,25.0,20.0,29.90,West,259,6.0,9.0,81,0.00,,,0.00,0.00,VWS V14.01,2013-03-21 18:38:00,
2013-03-21 14:43:00,25.2,20.5,29.90,West,266,10.5,16.5,82,0.00,,,0.00,0.00,VWS V14.01,2013-03-21 18:43:00,
2013-03-21 14:45:00,24.7,19.4,29.89,WNW,292,3.0,15.0,80,0.00,,,0.00,0.00,VWS V14.01,2013-03-21 18:45:00,
2013-03-21 14:48:00,25.2,20.2,29.90,West,267,1.5,10.5,81,0.00,,,0.00,0.00,VWS V14.01,2013-03-21 18:48:00,
2013-03-21 14:53:00,25.3,20.3,29.90,SSW,210,6.0,10.5,81,0.00,,,0.00,0.00,VWS V14.01,2013-03-21 18:53:00,
2013-03-21 14:58:00,25.3,20.3,29.89,SW,224,12.0,18.0,81,0.00,,,0.00,0.00,VWS V14.01,2013-03-21 18:58:00,
2013-03-21 15:00:00,24.8,20.1,29.90,WSW,249,3.0,15.0,82,0.00,,,0.00,0.00,VWS V14.01,2013-03-21 19:00:00,
2013-03-21 15:03:00,25.3,20.6,29.89,West,259,4.5,7.5,82,0.00,,,0.00,0.00,VWS V14.01,2013-03-21 19:03:00,
2013-03-21 15:08:00,25.4,20.7,29.89,West,276,1.5,12.0,82,0.00,,,0.00,0.00,VWS V14.01,2013-03-21 19:08:00,
2013-03-21 15:13:00,25.5,20.8,29.89,WSW,249,6.0,12.0,82,0.00,,,0.00,0.00,VWS V14.01,2013-03-21 19:13:00,
2013-03-21 15:15:00,24.8,20.7,29.90,WSW,252,6.0,13.5,84,0.00,,,0.00,0.00,VWS V14.01,2013-03-21 19:15:00,
2013-03-21 15:18:00,25.5,21.1,29.89,West,266,10.5,18.0,83,0.00,,,0.00,0.00,VWS V14.01,2013-03-21 19:18:00,
2013-03-21 15:23:00,25.6,20.9,29.89,SW,226,6.0,18.0,82,0.00,,,0.00,0.00,VWS V14.01,2013-03-21 19:23:00,
2013-03-21 15:28:00,25.7,21.3,29.89,SW,228,3.0,18.0,83,0.00,,,0.00,0.00,VWS V14.01,2013-03-21 19:28:00,
2013-03-21 15:30:00,25.0,20.0,29.90,WSW,250,3.0,16.5,81,0.00,,,0.00,0.00,VWS V14.01,2013-03-21 19:30:00,
2013-03-21 15:33:00,25.8,21.4,29.89,West,277,3.0,15.0,83,0.00,,,0.00,0.00,VWS V14.01,2013-03-21 19:33:00,
2013-03-21 15:38:00,25.9,21.5,29.89,SW,226,9.0,15.0,83,0.00,,,0.00,0.00,VWS V14.01,2013-03-21 19:38:00,
2013-03-21 15:43:00,26.1,21.6,29.89,West,271,1.5,15.0,83,0.00,,,0.00,0.00,VWS V14.01,2013-03-21 19:43:00,
2013-03-21 15:45:00,25.2,20.2,29.90,WSW,248,6.0,16.5,81,0.00,,,0.00,0.00,VWS V14.01,2013-03-21 19:45:00,
2013-03-21 15:48:00,26.3,22.1,29.89,SW,234,3.0,10.5,84,0.00,,,0.00,0.00,VWS V14.01,2013-03-21 19:48:00,
2013-03-21 15:53:00,26.5,22.0,29.89,WSW,250,1.5,10.5,83,0.00,,,0.00,0.00,VWS V14.01,2013-03-21 19:53:00,
2013-03-21 15:58:00,26.6,21.9,29.89,SSW,212,1.5,10.5,82,0.00,,,0.00,0.00,VWS V14.01,2013-03-21 19:58:00,
2013-03-21 16:00:00,25.3,20.6,29.89,WSW,237,9.0,18.0,82,0.00,,,0.00,0.00,VWS V14.01,2013-03-21 20:00:00,
2013-03-21 16:03:00,26.8,22.0,29.89,West,276,1.5,4.5,82,0.00,,,0.00,0.00,VWS V14.01,2013-03-21 20:03:00,
2013-03-21 16:08:00,26.8,21.8,29.89,West,263,4.5,16.5,81,0.00,,,0.00,0.00,VWS V14.01,2013-03-21 20:08:00,
2013-03-21 16:13:00,26.8,21.8,29.89,WSW,245,9.0,16.5,81,0.00,,,0.00,0.00,VWS V14.01,2013-03-21 20:13:00,
2013-03-21 16:15:00,25.5,20.8,29.89,SW,236,10.5,15.0,82,0.00,,,0.00,0.00,VWS V14.01,2013-03-21 20:15:00,
2013-03-21 16:18:00,27.1,22.1,29.89,WSW,255,4.5,9.0,81,0.00,,,0.00,0.00,VWS V14.01,2013-03-21 20:18:00,
2013-03-21 16:23:00,27.2,21.9,29.89,WSW,240,3.0,9.0,80,0.00,,,0.00,0.00,VWS V14.01,2013-03-21 20:23:00,
2013-03-21 16:28:00,27.4,22.4,29.89,WNW,295,3.0,10.5,81,0.00,,,0.00,0.00,VWS V14.01,2013-03-21 20:28:00,
2013-03-21 16:30:00,25.8,21.4,29.89,West,261,0.0,18.0,83,0.00,,,0.00,0.00,VWS V14.01,2013-03-21 20:30:00,
2013-03-21 16:33:00,27.6,22.2,29.89,SW,231,3.0,13.5,80,0.00,,,0.00,0.00,VWS V14.01,2013-03-21 20:33:00,
2013-03-21 16:38:00,27.7,22.4,29.89,SW,231,7.5,13.5,80,0.00,,,0.00,0.00,VWS V14.01,2013-03-21 20:38:00,
2013-03-21 16:43:00,27.8,22.7,29.89,WSW,247,1.5,15.0,81,0.00,,,0.00,0.00,VWS V14.01,2013-03-21 20:43:00,
2013-03-21 16:45:00,26.2,22.0,29.89,West,265,3.0,15.0,84,0.00,,,0.00,0.00,VWS V14.01,2013-03-21 20:45:00,
2013-03-21 16:48:00,27.8,23.3,29.89,WSW,252,1.5,6.0,83,0.00,,,0.00,0.00,VWS V14.01,2013-03-21 20:48:00,
2013-03-21 16:53:00,27.9,22.8,29.90,West,267,4.5,10.5,81,0.00,,,0.00,0.00,VWS V14.01,2013-03-21 20:53:00,
2013-03-21 16:58:00,27.8,23.0,29.90,West,281,3.0,12.0,82,0.00,,,0.00,0.00,VWS V14.01,2013-03-21 20:58:00,
2013-03-21 17:00:00,26.7,22.2,29.89,SW,228,1.5,10.5,83,0.00,,,0.00,0.00,VWS V14.01,2013-03-21 21:00:00,
2013-03-21 17:03:00,27.6,23.7,29.90,West,260,3.0,18.0,85,0.00,,,0.00,0.00,VWS V14.01,2013-03-21 21:03:00,
2013-03-21 17:08:00,27.5,23.9,29.90,WNW,286,1.5,18.0,86,0.00,,,0.00,0.00,VWS V14.01,2013-03-21 21:08:00,
2013-03-21 17:13:00,27.4,24.0,29.90,SW,227,4.5,18.0,87,0.00,,,0.00,0.00,VWS V14.01,2013-03-21 21:13:00,
2013-03-21 17:15:00,27.0,22.0,29.89,West,269,0.0,16.5,81,0.00,,,0.00,0.00,VWS V14.01,2013-03-21 21:15:00,
2013-03-21 17:18:00,27.4,24.3,29.90,WSW,247,4.5,10.5,88,0.00,,,0.00,0.00,VWS V14.01,2013-03-21 21:18:00,
2013-03-21 17:23:00,27.4,24.3,29.90,NW,321,0.0,12.0,88,0.00,,,0.00,0.00,VWS V14.01,2013-03-21 21:23:00,
2013-03-21 17:28:00,27.4,24.6,29.90,SW,220,4.5,12.0,89,0.00,,,0.00,0.00,VWS V14.01,2013-03-21 21:28:00,
2013-03-21 17:30:00,27.5,22.1,29.89,SW,231,9.0,10.5,80,0.00,,,0.00,0.00,VWS V14.01,2013-03-21 21:30:00,
2013-03-21 17:33:00,27.5,24.7,29.90,NW,311,3.0,6.0,89,0.00,,,0.00,0.00,VWS V14.01,2013-03-21 21:33:00,
2013-03-21 17:38:00,27.6,24.5,29.90,SW,233,6.0,15.0,88,0.00,,,0.00,0.00,VWS V14.01,2013-03-21 21:38:00,
2013-03-21 17:43:00,27.8,24.7,29.90,West,276,4.5,15.0,88,0.00,,,0.00,0.00,VWS V14.01,2013-03-21 21:43:00,
2013-03-21 17:45:00,27.8,23.0,29.89,SW,219,1.5,15.0,82,0.00,,,0.00,0.00,VWS V14.01,2013-03-21 21:45:00,
2013-03-21 17:48:00,28.0,24.1,29.90,WNW,285,4.5,10.5,85,0.00,,,0.00,0.00,VWS V14.01,2013-03-21 21:48:00,
2013-03-21 17:53:00,28.1,24.5,29.90,West,264,3.0,12.0,86,0.00,,,0.00,0.00,VWS V14.01,2013-03-21 21:53:00,
2013-03-21 17:58:00,28.1,24.2,29.89,West,269,1.5,12.0,85,0.00,,,0.00,0.00,VWS V14.01,2013-03-21 21:58:00,
2013-03-21 18:00:00,27.7,23.2,29.90,West,262,6.0,12.0,83,0.00,,,0.00,0.00,VWS V14.01,2013-03-21 22:00:00,
2013-03-21 18:03:00,28.1,23.6,29.90,SW,233,10.5,18.0,83,0.00,,,0.00,0.00,VWS V14.01,2013-03-21 22:03:00,
2013-03-21 18:08:00,28.0,23.8,29.90,WSW,248,0.0,18.0,84,0.00,,,0.00,0.00,VWS V14.01,2013-03-21 22:08:00,
2013-03-21 18:13:00,28.2,23.7,29.90,West,268,6.0,18.0,83,0.00,,,0.00,0.00,VWS V14.01,2013-03-21 22:13:00,
2013-03-21 18:15:00,27.4,24.3,29.90,WSW,246,1.5,18.0,88,0.00,,,0.00,0.00,VWS V14.01,2013-03-21 22:15:00,
2013-03-21 18:18:00,28.3,23.8,29.90,SSW,213,4.5,9.0,83,0.00,,,0.00,0.00,VWS V14.01,2013-03-21 22:18:00,
2013-03-21 18:23:00,28.3,24.1,29.90,West,262,1.5,10.5,84,0.00,,,0.00,0.00,VWS V14.01,2013-03-21 22:23:00,
2013-03-21 18:28:00,28.2,24.6,29.90,WSW,249,4.5,10.5,86,0.00,,,0.00,0.00,VWS V14.01,2013-03-21 22:28:00,
2013-03-21 18:30:00,27.4,24.6,29.90,West,264,1.5,12.0,89,0.00,,,0.00,0.00,VWS V14.01,2013-03-21 22:30:00,
2013-03-21 18:33:00,28.2,24.6,29.90,West,279,6.0,9.0,86,0.00,,,0.00,0.00,VWS V14.01,2013-03-21 22:33:00,
2013-03-21 18:38:00,28.2,24.6,29.90,West,267,3.0,10.5,86,0.00,,,0.00,0.00,VWS V14.01,2013-03-21 22:38:00,
2013-03-21 18:43:00,28.2,24.3,29.90,WSW,238,4.5,10.5,85,0.00,,,0.00,0.00,VWS V14.01,2013-03-21 22:43:00,
2013-03-21 18:45:00,28.0,24.4,29.90,WSW,238,10.5,15.0,86,0.00,,,0.00,0.00,VWS V14.01,2013-03-21 22:45:00,
2013-03-21 18:48:00,28.3,24.1,29.90,West,276,3.0,10.5,84,0.00,,,0.00,0.00,VWS V14.01,2013-03-21 22:48:00,
2013-03-21 18:53:00,28.5,23.4,29.90,West,261,7.5,10.5,81,0.00,,,0.00,0.00,VWS V14.01,2013-03-21 22:53:00,
2013-03-21 18:58:00,28.7,23.0,29.90,WSW,257,3.0,10.5,79,0.00,,,0.00,0.00,VWS V14.01,2013-03-21 22:58:00,
2013-03-21 19:00:00,28.1,23.9,29.90,West,264,1.5,13.5,84,0.00,,,0.00,0.00,VWS V14.01,2013-03-21 23:00:00,
2013-03-21 19:03:00,28.7,23.0,29.90,West,272,4.5,6.0,79,0.00,,,0.00,0.00,VWS V14.01,2013-03-21 23:03:00,
2013-03-21 19:08:00,28.7,23.6,29.90,West,262,1.5,10.5,81,0.00,,,0.00,0.00,VWS V14.01,2013-03-21 23:08:00,
2013-03-21 19:13:00,28.4,23.9,29.90,WSW,257,0.0,10.5,83,0.00,,,0.00,0.00,VWS V14.01,2013-03-21 23:13:00,
2013-03-21 19:15:00,28.2,23.7,29.90,SW,222,1.5,18.0,83,0.00,,,0.00,0.00,VWS V14.01,2013-03-21 23:15:00,
2013-03-21 19:18:00,28.3,24.1,29.90,WSW,257,6.0,9.0,84,0.00,,,0.00,0.00,VWS V14.01,2013-03-21 23:18:00,
2013-03-21 19:23:00,28.3,23.8,29.90,WNW,296,3.0,9.0,83,0.00,,,0.00,0.00,VWS V14.01,2013-03-21 23:23:00,
2013-03-21 19:28:00,28.3,23.8,29.90,West,279,3.0,10.5,83,0.00,,,0.00,0.00,VWS V14.01,2013-03-21 23:28:00,
2013-03-21 19:30:00,28.2,24.6,29.90,West,269,4.5,10.5,86,0.00,,,0.00,0.00,VWS V14.01,2013-03-21 23:30:00,
2013-03-21 19:33:00,28.4,23.9,29.91,West,270,0.0,9.0,83,0.00,,,0.00,0.00,VWS V14.01,2013-03-21 23:33:00,
2013-03-21 19:38:00,28.4,24.2,29.91,SSW,213,1.5,15.0,84,0.00,,,0.00,0.00,VWS V14.01,2013-03-21 23:38:00,
2013-03-21 19:43:00,28.2,24.6,29.91,West,269,9.0,15.0,86,0.00,,,0.00,0.00,VWS V14.01,2013-03-21 23:43:00,
2013-03-21 19:45:00,28.3,24.4,29.90,West,259,0.0,10.5,85,0.00,,,0.00,0.00,VWS V14.01,2013-03-21 23:45:00,
2013-03-21 19:48:00,28.0,24.6,29.91,SW,229,12.0,12.0,87,0.00,,,0.00,0.00,VWS V14.01,2013-03-21 23:48:00,
2013-03-21 19:53:00,27.9,24.8,29.91,WSW,248,1.5,12.0,88,0.00,,,0.00,0.00,VWS V14.01,2013-03-21 23:53:00,
2013-03-21 19:58:00,27.8,24.7,29.91,West,262,3.0,16.5,88,0.00,,,0.00,0.00,VWS V14.01,2013-03-21 23:58:00,
2013-03-21 20:00:00,28.7,23.0,29.90,West,266,6.0,12.0,79,0.00,,,0.00,0.00,VWS V14.01,2013-03-22 00:00:00,
2013-03-21 20:03:00,27.8,25.0,29.91,West,263,1.5,7.5,89,0.00,,,0.00,0.00,VWS V14.01,2013-03-22 00:03:00,
2013-03-21 20:08:00,27.7,24.9,29.91,West,276,3.0,10.5,89,0.00,,,0.00,0.00,VWS V14.01,2013-03-22 00:08:00,
2013-03-21 20:13:00,27.8,24.7,29.91,West,266,1.5,10.5,88,0.00,,,0.00,0.00,VWS V14.01,2013-03-22 00:13:00,
2013-03-21 20:15:00,28.3,23.8,29.90,West,274,1.5,12.0,83,0.00,,,0.00,0.00,VWS V14.01,2013-03-22 00:15:00,
2013-03-21 20:18:00,27.9,24.5,29.90,West,275,4.5,12.0,87,0.00,,,0.00,0.00,VWS V14.01,2013-03-22 00:18:00,
2013-03-21 20:23:00,28.0,24.4,29.90,West,278,4.5,12.0,86,0.00,,,0.00,0.00,VWS V14.01,2013-03-22 00:23:00,
2013-03-21 20:28:00,28.1,24.7,29.91,West,264,3.0,12.0,87,0.00,,,0.00,0.00,VWS V14.01,2013-03-22 00:28:00,
2013-03-21 20:30:00,28.3,23.8,29.91,West,278,1.5,10.5,83,0.00,,,0.00,0.00,VWS V14.01,2013-03-22 00:30:00,
2013-03-21 20:33:00,28.0,24.6,29.91,WNW,293,7.5,10.5,87,0.00,,,0.00,0.00,VWS V14.01,2013-03-22 00:33:00,
2013-03-21 20:38:00,28.0,24.6,29.91,West,265,3.0,10.5,87,0.00,,,0.00,0.00,VWS V14.01,2013-03-22 00:38:00,
2013-03-21 20:43:00,28.1,24.5,29.90,West,278,1.5,10.5,86,0.00,,,0.00,0.00,VWS V14.01,2013-03-22 00:43:00,
2013-03-21 20:45:00,28.1,24.7,29.91,WSW,238,3.0,15.0,87,0.00,,,0.00,0.00,VWS V14.01,2013-03-22 00:45:00,
2013-03-21 20:48:00,28.5,24.0,29.91,WNW,301,4.5,10.5,83,0.00,,,0.00,0.00,VWS V14.01,2013-03-22 00:48:00,
2013-03-21 20:53:00,28.8,24.3,29.91,SW,233,6.0,10.5,83,0.00,,,0.00,0.00,VWS V14.01,2013-03-22 00:53:00,
2013-03-21 20:58:00,28.9,24.4,29.91,WSW,258,0.0,10.5,83,0.00,,,0.00,0.00,VWS V14.01,2013-03-22 00:58:00,
2013-03-21 21:00:00,27.8,25.0,29.91,West,272,12.0,16.5,89,0.00,,,0.00,0.00,VWS V14.01,2013-03-22 01:00:00,
2013-03-21 21:03:00,29.0,23.9,29.91,SSE,164,4.5,12.0,81,0.00,,,0.00,0.00,VWS V14.01,2013-03-22 01:03:00,
2013-03-21 21:08:00,29.1,23.7,29.91,WSW,238,1.5,12.0,80,0.00,,,0.00,0.00,VWS V14.01,2013-03-22 01:08:00,
2013-03-21 21:13:00,29.3,23.6,29.91,WSW,255,4.5,15.0,79,0.00,,,0.00,0.00,VWS V14.01,2013-03-22 01:13:00,
2013-03-21 21:15:00,27.9,24.8,29.91,West,264,1.5,10.5,88,0.00,,,0.00,0.00,VWS V14.01,2013-03-22 01:15:00,
2013-03-21 21:18:00,29.4,23.4,29.91,WSW,252,1.5,9.0,78,0.00,,,0.00,0.00,VWS V14.01,2013-03-22 01:18:00,
2013-03-21 21:23:00,29.4,23.4,29.91,WSW,245,3.0,9.0,78,0.00,,,0.00,0.00,VWS V14.01,2013-03-22 01:23:00,
2013-03-21 21:28:00,29.5,23.5,29.91,West,269,6.0,10.5,78,0.00,,,0.00,0.00,VWS V14.01,2013-03-22 01:28:00,
2013-03-21 21:30:00,28.1,25.0,29.90,WSW,257,3.0,12.0,88,0.00,,,0.00,0.00,VWS V14.01,2013-03-22 01:30:00,
2013-03-21 21:33:00,29.6,23.3,29.91,West,271,1.5,7.5,77,0.00,,,0.00,0.00,VWS V14.01,2013-03-22 01:33:00,
2013-03-21 21:38:00,29.6,23.6,29.91,WSW,239,6.0,10.5,78,0.00,,,0.00,0.00,VWS V14.01,2013-03-22 01:38:00,
2013-03-21 21:43:00,29.6,23.6,29.91,WSW,244,4.5,10.5,78,0.00,,,0.00,0.00,VWS V14.01,2013-03-22 01:43:00,
2013-03-21 21:45:00,28.3,24.1,29.90,WNW,291,6.0,10.5,84,0.00,,,0.00,0.00,VWS V14.01,2013-03-22 01:45:00,
2013-03-21 21:48:00,29.7,24.0,29.91,West,280,4.5,6.0,79,0.00,,,0.00,0.00,VWS V14.01,2013-03-22 01:48:00,
2013-03-21 21:53:00,29.7,24.0,29.91,WSW,251,6.0,13.5,79,0.00,,,0.00,0.00,VWS V14.01,2013-03-22 01:53:00,
2013-03-21 21:58:00,29.7,24.3,29.91,West,274,1.5,13.5,80,0.00,,,0.00,0.00,VWS V14.01,2013-03-22 01:58:00,
2013-03-21 22:00:00,28.9,24.4,29.91,West,276,1.5,10.5,83,0.00,,,0.00,0.00,VWS V14.01,2013-03-22 02:00:00,
2013-03-21 22:03:00,29.7,24.3,29.91,WNW,283,3.0,7.5,80,0.00,,,0.00,0.00,VWS V14.01,2013-03-22 02:03:00,
2013-03-21 22:08:00,29.7,24.6,29.91,West,279,3.0,9.0,81,0.00,,,0.00,0.00,VWS V14.01,2013-03-22 02:08:00,
2013-03-21 22:13:00,29.7,24.6,29.91,WNW,299,3.0,10.5,81,0.00,,,0.00,0.00,VWS V14.01,2013-03-22 02:13:00,
2013-03-21 22:15:00,29.3,23.3,29.91,West,275,1.5,15.0,78,0.00,,,0.00,0.00,VWS V14.01,2013-03-22 02:15:00,
2013-03-21 22:18:00,29.7,24.6,29.92,West,263,7.5,9.0,81,0.00,,,0.00,0.00,VWS V14.01,2013-03-22 02:18:00,
2013-03-21 22:23:00,29.6,25.1,29.92,SW,225,1.5,12.0,83,0.00,,,0.00,0.00,VWS V14.01,2013-03-22 02:23:00,
2013-03-21 22:28:00,29.2,25.8,29.92,WSW,258,4.5,12.0,87,0.00,,,0.00,0.00,VWS V14.01,2013-03-22 02:28:00,
2013-03-21 22:30:00,29.6,23.6,29.91,NNE,20,4.5,13.5,78,0.00,,,0.00,0.00,VWS V14.01,2013-03-22 02:30:00,
2013-03-21 22:33:00,28.9,26.1,29.92,West,267,3.0,4.5,89,0.00,,,0.00,0.00,VWS V14.01,2013-03-22 02:33:00,
2013-03-21 22:38:00,28.6,25.8,29.92,West,278,0.0,15.0,89,0.00,,,0.00,0.00,VWS V14.01,2013-03-22 02:38:00,
2013-03-21 22:43:00,28.5,26.0,29.92,WSW,249,3.0,15.0,90,0.00,,,0.00,0.00,VWS V14.01,2013-03-22 02:43:00,
2013-03-21 22:45:00,29.7,23.7,29.91,WNW,293,1.5,10.5,78,0.00,,,0.00,0.00,VWS V14.01,2013-03-22 02:45:00,
2013-03-21 22:48:00,28.5,26.0,29.92,West,270,0.0,7.5,90,0.00,,,0.00,0.00,VWS V14.01,2013-03-22 02:48:00,
2013-03-21 22:53:00,28.5,26.2,29.92,WNW,284,1.5,7.5,91,0.00,,,0.00,0.00,VWS V14.01,2013-03-22 02:53:00,
2013-03-21 22:58:00,28.6,26.3,29.92,WSW,251,3.0,9.0,91,0.00,,,0.00,0.00,VWS V14.01,2013-03-22 02:58:00,
2013-03-21 23:00:00,29.7,24.3,29.91,SSW,194,3.0,13.5,80,0.00,,,0.00,0.00,VWS V14.01,2013-03-22 03:00:00,
2013-03-21 23:03:00,28.6,26.3,29.92,WNW,283,4.5,9.0,91,0.00,,,0.00,0.00,VWS V14.01,2013-03-22 03:03:00,
2013-03-21 23:08:00,28.6,26.3,29.92,WSW,238,1.5,9.0,91,0.00,,,0.00,0.00,VWS V14.01,2013-03-22 03:08:00,
2013-03-21 23:13:00,28.5,26.2,29.92,WSW,256,1.5,9.0,91,0.00,,,0.00,0.00,VWS V14.01,2013-03-22 03:13:00,
2013-03-21 23:15:00,29.7,24.6,29.91,WNW,297,3.0,10.5,81,0.00,,,0.00,0.00,VWS V14.01,2013-03-22 03:15:00,
2013-03-21 23:18:00,28.5,26.5,29.92,WNW,302,1.5,9.0,92,0.00,,,0.00,0.00,VWS V14.01,2013-03-22 03:18:00,
2013-03-21 23:23:00,28.4,26.4,29.92,NNW,330,4.5,12.0,92,0.00,,,0.00,0.00,VWS V14.01,2013-03-22 03:23:00,
2013-03-21 23:28:00,28.4,26.4,29.92,WNW,285,3.0,12.0,92,0.00,,,0.00,0.00,VWS V14.01,2013-03-22 03:28:00,
2013-03-21 23:30:00,29.0,26.2,29.91,SW,236,4.5,12.0,89,0.00,,,0.00,0.00,VWS V14.01,2013-03-22 03:30:00,
2013-03-21 23:33:00,28.3,26.0,29.92,WSW,240,4.5,6.0,91,0.00,,,0.00,0.00,VWS V14.01,2013-03-22 03:33:00,
2013-03-21 23:38:00,28.3,26.0,29.92,WSW,248,4.5,10.5,91,0.00,,,0.00,0.00,VWS V14.01,2013-03-22 03:38:00,
2013-03-21 23:43:00,28.3,26.3,29.92,SW,236,6.0,10.5,92,0.00,,,0.00,0.00,VWS V14.01,2013-03-22 03:43:00,
2013-03-21 23:45:00,28.5,26.0,29.92,West,278,6.0,15.0,90,0.00,,,0.00,0.00,VWS V14.01,2013-03-22 03:45:00,
2013-03-21 23:48:00,28.3,26.3,29.92,West,281,1.5,9.0,92,0.00,,,0.00,0.00,VWS V14.01,2013-03-22 03:48:00,
2013-03-21 23:53:00,28.1,26.1,29.92,WSW,244,7.5,10.5,92,0.00,,,0.00,0.00,VWS V14.01,2013-03-22 03:53:00,
2013-03-21 23:58:00,27.9,26.1,29.92,SW,224,6.0,13.5,93,0.00,,,0.00,0.00,VWS V14.01,2013-03-22 03:58:00,